This demonstration page uses our WeatherBlox Daily Observations layout. Learn more.

Left ArrowRight Arrow

34.02893, -84.19858

Hourly Observations for May 3, 2022

Temp ( °F °C ) Dew Point ( °F °C ) Humidity (%) Winds ( mph kmh ) Pressure ( in mb ) Visibility ( mi km ) Precip ( " mm )
12:53 am 00:53 Clear 67 19.4 61 16.1 81 81 Calm 30.01 1016 10 16 0.00 0.00
1:53 am 01:53 Clear 65 18.3 61 16.1 87 87 SSE 3 6 30.01 1016 10 16 0.00 0.00
2:53 am 02:53 Clear 65 18.3 61 16.1 87 87 Calm 30.00 1016 10 16 0.00 0.00
3:53 am 03:53 Clear 63 17.2 61 16.1 93 93 Calm 30.00 1016 10 16 0.00 0.00
4:53 am 04:53 Clear 61 16.1 60 15.6 97 97 Calm 29.99 1016 9 14 0.00 0.00
5:53 am 05:53 Clear 62 16.7 61 16.1 96 96 Calm 30.00 1016 9 14 0.00 0.00
6:53 am 06:53 Sunny with Mist and Fog 61 16.1 60 15.6 97 97 Calm 30.01 1016 5 8 0.00 0.00
7:53 am 07:53 Sunny 68 20 64 17.8 87 87 SW 6 9 30.03 1017 10 16 0.00 0.00
8:53 am 08:53 Sunny 71 21.7 64 17.8 79 79 WSW 6 9 30.04 1017 10 16 0.00 0.00
9:53 am 09:53 Sunny 75 23.9 64 17.8 69 69 WSW 5 7 30.04 1017 10 16 0.00 0.00
10:53 am 10:53 Sunny 77 25 61 16.1 58 58 WSW 15 24 30.06 1018 10 16 0.00 0.00
11:53 am 11:53 Sunny 81 27.2 61 16.1 51 51 SW 10 17 30.06 1018 10 16 0.00 0.00
12:53 pm 12:53 Partly Cloudy 83 28.3 61 16.1 48 48 SSW 15 24 30.04 1017 10 16 0.00 0.00
1:53 pm 13:53 Partly Cloudy 84 28.9 60 15.6 44 44 SW 10 17 30.01 1016 10 16 0.00 0.00
2:53 pm 14:53 Mostly Sunny 85 29.4 60 15.6 43 43 SSW 18 30 30.00 1016 10 16 0.00 0.00
3:53 pm 15:53 Mostly Sunny 84 28.9 59 15 43 43 SW 12 19 29.98 1015 10 16 0.00 0.00
4:53 pm 16:53 Mostly Sunny 85 29.4 60 15.6 43 43 SW 14 22 29.96 1014 10 16 0.00 0.00
5:53 pm 17:53 Mostly Sunny 82 27.8 60 15.6 47 47 WSW 10 17 29.96 1015 10 16 0.00 0.00
6:53 pm 18:53 Mostly Sunny 82 27.8 59 15 46 46 WSW 10 17 29.96 1015 10 16 0.00 0.00
7:53 pm 19:53 Partly Cloudy 79 26.1 59 15 50 50 WSW 3 6 29.95 1014 10 16 0.00 0.00
8:53 pm 20:53 Mostly Clear 76 24.4 59 15 56 56 SSW 6 9 29.95 1014 10 16 0.00 0.00
9:53 pm 21:53 Clear 75 23.9 60 15.6 60 60 SSW 7 11 29.97 1015 10 16 0.00 0.00
10:53 pm 22:53 Mostly Clear 75 23.9 61 16.1 62 62 SW 5 7 29.99 1016 10 16 0.00 0.00
11:53 pm 23:53 Mostly Clear 72 22.2 61 16.1 68 68 SSW 3 6 29.99 1016 10 16 0.00 0.00

Powered by AerisWeather